Location: Forst
(46.9333°N, 15.4333°E)
Time: 04:52:58
(UTC+00:00)

Envisat - Pass Details

Date: 04 October 2021
Orbit: 764 x 766 km, 98.2° (Epoch: 27 October)

Event Time Altitude Azimuth Distance (km) Brightness Sun altitude
Rises 03:21:39 0° 22° (NNE) 3,242 6.8 -17.7°
Reaches altitude 10° 03:24:14 10° 33° (NNE) 2,311 6.1 -17.3°
Maximum altitude 03:28:42 30° 95° (E) 1,347 5.0 -16.5°
Drops below altitude 10° 03:33:08 10° 156° (SSE) 2,295 5.6 -15.8°
Sets 03:35:41 0° 167° (SSE) 3,216 6.3 -15.4°
